Regional Weather Roundup
Issued by NWS

Home | Current Version | Previous Version | Graphics & Text | Print | Product List | Glossary Off
Versions: 1 2 3 4 5 6 7 8 9 10 11 12 13 14 15 16 17 18 19 20 21 22 23 24 25 26 27 28 29 30 31 32 33 34 35 36 37 38 39 40 41 42 43 44 45 46 47 48 49 50

000
ASUS43 KDTX 260910
RWRMI
MICHIGAN HOURLY REGIONAL WEATHER ROUNDUP
NATIONAL WEATHER SERVICE DETROIT/PONTIAC MI
500 AM EDT SUN MAR 26 2017

NOTE: "FAIR" INDICATES FEW OR NO CLOUDS BELOW 12,000 FEET WITH NO
SIGNIFICANT WEATHER AND/OR OBSTRUCTION TO VISIBILITY.

MIZ047>049-052>055-059>063-066>070-074>076-081>083-261000-
SOUTHEAST LOWER MICHIGAN

CITY           SKY/WX    TMP DP  RH WIND       PRES   REMARKS
ADRIAN         CLOUDY    39  36  89 E9        30.04F WCI  33
ALMA           CLOUDY    37  36  99 NE6       30.08F FOG     WCI  32
ANN ARBOR      CLOUDY    39  37  92 VRB3      30.06R
BAD AXE        CLOUDY    36  32  86 E6        30.10F WCI  31
CARO           CLOUDY    37  34  89 E3        30.09S
DETROIT CITY   CLOUDY    39  36  89 E12       30.07F WCI  32
DETROIT        CLOUDY    40  36  86 E8        30.06F WCI  34
FLINT          CLOUDY    38  35  89 E7        30.07F WCI  33
GROSSE ILE     CLOUDY    38  36  90 E9G16     30.04F WCI  32
HILLSDALE      CLOUDY    37  36  93 E9G16     30.00F WCI  31
HOWELL         CLOUDY    40  37  91 CALM      30.07R

CITY           SKY/WX    TMP DP  RH WIND       PRES   REMARKS
JACKSON        CLOUDY    40  38  93 E9        30.02F WCI  34
LAMBERTVILLE   CLOUDY    39  36  89 E7        30.05R WCI  34
LANSING        CLOUDY    40  36  86 E8        30.05F WCI  34
LAPEER         MOCLDY    36  35  96 E6        30.08S WCI  32
MASON          CLOUDY    40  38  93 E5        30.04F
MONROE         MOCLDY    39  37  94 NE7       30.04F WCI  34
MT. CLEMENS    PTCLDY    38  38  99 NE6       30.06F WCI  34
PONTIAC        CLOUDY    38  34  85 E9        30.05F WCI  31
PORT HOPE        N/A     35  33  92 E14       30.10F WCI  26
PORT HURON     CLOUDY    37  34  87 E7        30.09F WCI  32
TRI CITIES     CLOUDY    36  35  96 NE10      30.10F FOG     WCI  28
MIDLAND        DRIZZLE   36  35  93 NE6       30.10S WCI  32
TROY           CLOUDY    39  35  87 E7        30.08F WCI  34
SAGINAW HB     CLOUDY    37  34  87 NE7       30.09F WCI  32
$$
MIZ043>046-050>051-056>058-064>065-071>073-077>080-261000-
SOUTHWEST LOWER MICHIGAN

CITY           SKY/WX    TMP DP  RH WIND       PRES   REMARKS
BATTLE CREEK   LGT RAIN  42  40  92 E9        30.00F
BENTON HARBOR  CLOUDY    47  43  86 E12       29.93F
BIG RAPIDS     MIX PCPN  36  34  93 E9        30.02F WCI  29
COLDWATER      CLOUDY    42  40  95 E8        29.98F
FREMONT        CLOUDY    38  37  97 E12       30.00S WCI  30
HOLLAND        LGT RAIN  43  41  93 E16       29.98F
GRAND RAPIDS   LGT RAIN  40 N/A N/A E17       30.00F WCI  31
IONIA          RAIN      37  37  97 E12       30.04S WCI  30
KALAMAZOO      CLOUDY    43  39  86 E7        29.99F
LUDINGTON      DRIZZLE   39  38  98 E9        29.99F WCI  33
MARSHALL       LGT RAIN  41  40  98 E6        30.00F
MOUNT PLEASANT DRIZZLE   36  34  94 E7        30.07F WCI  30
MUSKEGON       CLOUDY    42  39  89 E13G23    29.98F
SOUTH HAVEN    CLOUDY    45  44  96 E9G18     29.94F
$$
MIZ016>042-261000-
NORTHERN LOWER MICHIGAN

CITY           SKY/WX    TMP DP  RH WIND       PRES   REMARKS
ALPENA         LGT RAIN  34  33  96 E13G20    30.15F WCI  25
BEAVER ISLAND  RAIN      32  32 100 E7        30.09F WCI  26
BELLAIRE       MIX PCPN  37  33  87 CALM      30.06F
CADILLAC       DRIZZLE   35  34  96 E13       30.02F WCI  26
CHARLEVOIX     RAIN      35  34  98 E10       30.09F WCI  27
FRANKFORT      CLOUDY    38  35  89 E3        30.01F
GAYLORD        LGT RAIN  35  30  82 SE9G17    30.07F WCI  28
GRAYLING       LGT RAIN  34  32  93 E10       30.07F WCI  26
HARBOR SPRINGS FLURRIES  32  32  99 E9        30.09R WCI  25
HOUGHTON LAKE  LGT RAIN  35  33  92 E10       30.06F WCI  27
MANISTEE       LGT RAIN  38  37  97 E7        30.00F WCI  33
OSCODA         MIX PCPN  36  35  95 E7        30.14F WCI  30
PELLSTON       FRZ RAIN  33  30  88 E12       30.11F WCI  24
ROGERS CITY    MIX PCPN  33  32  94 E12         N/A  WCI  25
TRAVERSE CITY  CLOUDY    38  35  89 VRB5      30.03F WCI  34
$$
MIZ007>008-015-261000-
EASTERN UPPER MICHIGAN

CITY           SKY/WX    TMP DP  RH WIND       PRES   REMARKS
KINROSS        MIX PCPN  29  27  92 E20G25    30.15F WCI  16
MACKINAC ISLAN LGT SNOW  32  32 100 E22G35    30.11F WCI  19
NEWBERRY       CLOUDY    30  29  97 E9G17     30.11F WCI  21
S. S. MARIE    FRZ RAIN  31  27  85 E12G20    30.17F FOG     WCI  22
MUNISING         N/A     32  30  92 S9G21     30.08F WCI  24
$$
MIZ004>006-011>014-085-261000-
CENTRAL UPPER MICHIGAN

CITY           SKY/WX    TMP DP  RH WIND       PRES   REMARKS
ESCANABA       RAIN     N/A N/A N/A E10       30.08F
MENOMINEE      CLOUDY   N/A N/A N/A E13G21    30.05F FOG
SAWYER-GWINN   MIX PCPN  31  30  96 SE7       30.06F WCI  24
$$
MIZ001>003-009>011-084-261000-
WESTERN UPPER MICHIGAN

CITY           SKY/WX    TMP DP  RH WIND       PRES   REMARKS
IRON MOUNTAIN  CLOUDY    31  28  89 SE7       30.03F FOG     WCI  24
HOUGHTON       FRZ RAIN  31  29  92 E10       30.05F VSB 3/4 WCI  22
COPPER HARBOR    N/A     33  28  81 S8        30.08F WCI  26
IRONWOOD       MIX PCPN  32  31  96 CALM      30.02F
$$

ABBREVIATIONS USED IN REMARKS
   TC - TEMPERATURE IN CELSIUS
  WCI - WIND CHILL INDEX
   HX - HEAT INDEX
  VSB - VISIBILITY




USA.gov is the U.S. government's official web portal to all federal, state and local government web resources and services.